#timestamp,LO_Frequency,Hit,StdDev 
1696388415.1,286047000.1,N
1696388435.9,286046999.8,N
1696388455.7,286047000.0,N
1696388475.6,286046999.8,N
1696388495.4,286047000.2,N
1696388515.2,286047002.3,Y
1696388535.1,286047000.2,P
1696388536.0,286047000.2,N
1696388555.8,286046999.8,N
1696388575.7,286047000.3,N
1696388595.5,286047000.0,N
1696388615.3,286047002.3,Y
1696388635.2,286047002.7,P
1696388655.0,286047002.3,N
1696388655.9,286047002.3,N
1696388675.7,286047002.1,N
1696388695.6,286047000.4,N
1696388715.4,286046999.7,N
1696388735.3,286047002.7,N
1696388755.1,286047000.2,N
1696388756.0,286047000.2,N
1696388775.8,286046999.7,N
1696388795.7,286047002.4,N
1696388815.5,286047000.2,N
1696388835.4,286047002.7,N
1696388855.2,286047002.6,N
1696388875.0,286047002.3,N
1696388875.9,286047002.3,N
1696388895.8,286047002.1,N
1696388915.6,286047002.8,N
1696388935.4,286047002.0,N
1696388955.3,286047002.6,N
1696388975.1,286047001.6,N
1696388995.9,286047002.2,N
1696389015.7,286047002.2,N
1696389035.5,286047002.4,N
1696389055.4,286047000.1,N
1696389075.2,286047002.4,N
1696389095.1,286047000.3,N
1696389096.0,286047000.3,N
1696389115.8,286046999.9,N
1696389135.6,286047000.7,N
1696389155.5,286046999.7,N
1696389175.3,286047002.7,N
1696389195.1,286047000.5,N
1696389215.9,286046998.2,N
1696389235.7,286047000.7,N
1696389255.6,286047000.2,N
1696389275.4,286047000.1,N
1696389295.2,286047002.4,N
1696389315.1,286047000.1,N
1696389316.0,286047000.1,N
1696389335.8,286047000.3,N
1696389355.6,286047000.0,N
1696389375.5,286047000.4,N
1696389395.3,286047000.3,N
1696389415.1,286047000.0,N
1696389435.9,286047000.0,N
1696389455.7,286047002.8,N
1696389475.6,286047000.5,N
1696389495.4,286047000.5,N
1696389515.2,286047000.5,N
1696389535.1,286047000.3,N
1696389536.0,286047000.3,N
1696389555.8,286046999.7,N
1696389575.7,286047001.9,N
1696389595.5,286047002.1,N
1696389615.3,286047002.7,N
1696389635.2,286047001.6,N
1696389655.0,286047002.2,N
1696389655.9,286047002.2,N
1696389675.8,286047002.0,N
1696389695.6,286047004.4,Y
1696389715.4,286046999.8,P
1696389735.3,286047002.4,P
1696389755.1,286046999.7,N
1696389775.8,286047002.3,N
1696389795.7,286047000.5,N
1696389815.5,286047000.0,N
1696389835.4,286047002.3,N
1696389855.2,286047002.2,N
1696389875.0,286047001.4,N
1696389875.9,286047001.4,N
1696389895.8,286047002.6,N
1696389915.6,286047002.7,N
1696389935.5,286047002.3,N
1696389955.3,286047001.7,N
1696389975.5,286047002.3,N
1696389995.3,286047002.4,N
1696390015.1,286047002.3,N
1696390035.9,286047000.3,N
1696390055.7,286047000.6,N
1696390075.6,286047000.5,N
1696390095.4,286047002.4,N
1696390115.2,286046999.7,N
1696390135.1,286047001.5,N
1696390136.0,286047001.5,N
1696390155.8,286047001.5,N
1696390175.7,286047001.8,N
1696390195.5,286047002.6,N
1696390215.3,286047002.6,N
1696390235.2,286047000.6,N
1696390255.9,286047001.2,N
1696390275.7,286047000.4,N
1696390295.6,286047000.5,N
1696390315.4,286047000.7,N
1696390335.3,286046999.9,N
1696390355.1,286047000.4,N
1696390356.0,286047000.4,N
1696390375.8,286046999.8,N
1696390395.7,286046999.8,N
1696390415.5,286047000.1,N
1696390435.3,286047001.1,N
1696390455.2,286047001.0,N
1696390475.0,286047001.0,N
1696390475.9,286047001.0,N
1696390495.8,286047000.4,N
1696390515.6,286047002.4,N
1696390535.4,286046999.7,N
1696390555.3,286046999.8,N
1696390575.1,286047002.4,N
1696390595.9,286047002.6,N
1696390615.7,286047002.0,N
1696390635.5,286047001.5,N
1696390655.4,286047004.4,Y
1696390675.2,286047002.0,P
1696390695.1,286047001.5,N
1696390696.0,286047001.5,P
1696390715.8,286047001.6,Y
1696390735.6,286047000.3,P
1696390755.5,286047000.4,N
1696390775.3,286046998.8,N
1696390795.2,286046998.4,N
1696390815.9,286046999.3,N
1696390835.7,286046998.9,N
1696390855.6,286046998.7,N
1696390875.4,286046998.5,N
1696390895.2,286047000.9,N
1696390915.1,286047000.6,N
1696390916.0,286047000.6,N
1696390935.8,286046998.2,N
1696390955.7,286046999.4,N
1696390975.5,286046997.4,N
1696390995.3,286046997.9,N
1696391015.2,286046995.4,Y
1696391035.0,286046997.5,P
1696391035.9,286046997.5,N
1696391055.8,286046997.8,N
1696391075.6,286046997.3,Y
1696391095.5,286047001.1,P
1696391115.3,286046998.5,N
1696391135.1,286046998.5,N
1696391155.9,286046999.1,N
1696391175.7,286046996.5,Y
1696391195.5,286046999.5,P
1696391215.4,286046998.4,P
1696391235.2,286046997.4,P
1696391255.1,286046997.8,N
1696391256.0,286046997.8,N
1696391275.8,286046995.3,Y
1696391295.6,286046996.5,P
1696391315.5,286046996.5,P
1696391335.3,286046997.0,P
1696391355.2,286046996.8,Y
1696391375.9,286047000.4,P
1696391395.7,286047000.0,N
1696391415.6,286047000.5,N
1696391435.4,286046998.2,N
1696391455.2,286047000.7,N
1696391475.1,286046999.3,N
1696391476.0,286046999.3,N
1696391495.8,286046998.8,N
1696391515.7,286046999.4,N
1696391535.5,286046997.0,N
1696391555.3,286046997.9,N
1696391575.2,286046997.6,N
1696391595.0,286046997.9,N
1696391595.9,286046997.9,N
1696391615.7,286046996.9,N
1696391635.6,286046996.8,N
1696391655.4,286046999.4,N
1696391675.3,286046999.5,N
1696391695.1,286046997.6,N
1696391696.0,286046997.6,N
1696391715.8,286046997.6,N
1696391735.7,286046997.1,N
1696391755.5,286046997.6,N
1696391775.3,286046996.7,N
1696391795.2,286046996.8,N
1696391815.0,286046994.9,Y
1696391815.9,286046994.9,P
1696391835.8,286046999.4,N
1696391855.6,286046996.7,N
1696391875.5,286046997.6,N
1696391895.3,286046994.9,Y
1696391915.1,286047001.2,P
1696391935.9,286046998.6,N
1696391955.7,286047001.2,N
1696391975.5,286047000.2,N
1696391995.4,286047000.3,N
